Weather History for Sault Ste Marie, MI

Change the Weather History Date:

Monday, September 2, 2013

  Actual Average Record
Temperature  
Mean Temperature 55 °F 62 °F  
Max Temperature 56 °F 72 °F 87 °F (1973)
Min Temperature 53 °F 52 °F 31 °F (1976)
Degree Days  
Heating Degree Days 10 5  
Month to date heating degree days 12 9  
Since 1 July heating degree days 128 156  
Cooling Degree Days 0 1  
Month to date cooling degree days 0 2  
Year to date cooling degree days 252 180  
Growing Degree Days 4 (Base 50)    
Moisture  
Dew Point 50 °F    
Average Humidity 85    
Maximum Humidity 93    
Minimum Humidity 77    
Precipitation  
Precipitation 0.01 in 0.11 in 2.55 in (1905)
Month to date precipitation 0.39 0.23  
Year to date precipitation 28.68 19.40  
Sea Level Pressure  
Sea Level Pressure 29.80 in    
Wind  
Wind Speed 13 mph (WNW)    
Max Wind Speed 22 mph    
Max Gust Speed 29 mph    
Visibility 8 miles    
Events Rain    
T = Trace of Precipitation, MM = Missing Value Source: NWS Daily Summary

Daily Weather History Graph

Daily Weather History Graph

Search for Another Location

Airport:

Trip Planner

Search our weather history database for the weather conditions in past years. The results will help you decide how hot, cold, wet, or windy it might be!

Date:

Astronomy

Sep. 02, 2013 Rise Set
Actual Time 6:59 AM EDT 8:13 PM EDT
Civil Twilight 6:27 AM EDT 8:44 PM EDT
Nautical Twilight 5:50 AM EDT 9:22 PM EDT
Astronomical Twilight 5:10 AM EDT 10:02 PM EDT
Moon 4:09 AM EDT (9/2) 6:31 PM EDT (9/2)
Length of Visible Light 14h 17m
Length of Day
13h 14m
Waning Crescent, 8% of the Moon is Illuminated
Sep 2
Waning Crescent
Sep 5
New
Sep 12
First Quarter
Sep 19
Full
Sep 26
Last Quarter

Hourly Weather History & Observations

Time (EDT) Temp. Dew Point Humidity Pressure Visibility Wind Dir Wind Speed Gust Speed Precip Events Conditions
12:55 AM 55.9 °F 53.1 °F 90% 29.73 in 9.0 mi WNW 15.0 mph - 0.00 in   Overcast
1:15 AM 55.0 °F 52.0 °F 89% 29.74 in 8.0 mi WNW 17.3 mph 24.2 mph N/A   Overcast
1:55 AM 55.0 °F 51.1 °F 86% 29.73 in 10.0 mi WNW 16.1 mph 26.5 mph N/A   Overcast
2:21 AM 55.0 °F 50.0 °F 83% 29.74 in 10.0 mi WNW 16.1 mph 23.0 mph N/A   Overcast
2:55 AM 55.0 °F 48.9 °F 80% 29.73 in 10.0 mi WNW 13.8 mph 23.0 mph N/A   Overcast
3:55 AM 54.0 °F 48.9 °F 83% 29.74 in 10.0 mi West 13.8 mph 25.3 mph N/A   Overcast
4:55 AM 54.0 °F 50.0 °F 86% 29.73 in 10.0 mi WNW 16.1 mph 24.2 mph N/A   Overcast
5:46 AM 53.1 °F 51.1 °F 93% 29.74 in 5.0 mi West 13.8 mph - 0.00 in Rain Light Rain
5:55 AM 53.1 °F 51.1 °F 93% 29.73 in 4.0 mi West 16.1 mph - 0.01 in Rain Light Rain
6:06 AM 53.1 °F 51.1 °F 93% 29.74 in 4.0 mi West 15.0 mph 23.0 mph 0.00 in Rain Light Rain
6:55 AM 53.1 °F 51.1 °F 93% 29.74 in 7.0 mi WNW 15.0 mph 24.2 mph 0.00 in Rain Light Rain
7:17 AM 53.1 °F 51.1 °F 93% 29.75 in 6.0 mi WNW 12.7 mph - 0.00 in   Overcast
7:55 AM 53.1 °F 51.1 °F 93% 29.75 in 8.0 mi WNW 15.0 mph 21.9 mph 0.00 in   Overcast
8:34 AM 53.1 °F 50.0 °F 89% 29.76 in 5.0 mi WNW 13.8 mph 21.9 mph N/A   Overcast
8:55 AM 53.1 °F 50.0 °F 89% 29.76 in 6.0 mi WNW 16.1 mph 27.6 mph 0.00 in   Overcast
9:55 AM 54.0 °F 51.1 °F 90% 29.77 in 5.0 mi WNW 13.8 mph 20.7 mph 0.00 in Rain Light Rain
10:10 AM 54.0 °F 51.1 °F 90% 29.77 in 6.0 mi WNW 15.0 mph 21.9 mph 0.00 in   Overcast
10:20 AM 55.0 °F 51.1 °F 86% 29.78 in 10.0 mi NW 16.1 mph 21.9 mph 0.00 in   Overcast
10:55 AM 55.0 °F 51.1 °F 86% 29.78 in 8.0 mi WNW 15.0 mph 25.3 mph 0.00 in   Overcast
11:55 AM 55.0 °F 51.1 °F 86% 29.79 in 6.0 mi WNW 17.3 mph 24.2 mph 0.00 in   Overcast
12:55 PM 55.0 °F 50.0 °F 83% 29.81 in 10.0 mi WNW 12.7 mph 27.6 mph N/A   Overcast
1:55 PM 55.0 °F 48.9 °F 80% 29.81 in 10.0 mi WNW 16.1 mph 24.2 mph N/A   Overcast
2:30 PM 55.9 °F 48.9 °F 77% 29.82 in 10.0 mi WNW 15.0 mph 23.0 mph N/A   Overcast
2:55 PM 55.9 °F 48.9 °F 77% 29.82 in 10.0 mi WNW 15.0 mph 26.5 mph N/A   Overcast
3:37 PM 55.0 °F 51.1 °F 86% 29.82 in 9.0 mi NW 10.4 mph - 0.00 in   Overcast
3:46 PM 55.0 °F 51.1 °F 86% 29.81 in 7.0 mi WNW 16.1 mph 23.0 mph 0.00 in   Overcast
3:55 PM 55.0 °F 50.0 °F 83% 29.81 in 9.0 mi NW 12.7 mph 28.8 mph 0.00 in   Overcast
4:55 PM 55.9 °F 48.9 °F 77% 29.82 in 10.0 mi NW 13.8 mph 25.3 mph N/A   Overcast
5:55 PM 55.9 °F 48.9 °F 77% 29.83 in 10.0 mi NW 12.7 mph 24.2 mph N/A   Overcast
6:55 PM 55.0 °F 51.1 °F 86% 29.84 in 10.0 mi NW 11.5 mph - 0.00 in   Overcast
7:13 PM 55.0 °F 51.1 °F 86% 29.84 in 9.0 mi NW 13.8 mph 19.6 mph N/A   Overcast
7:25 PM 55.0 °F 51.1 °F 86% 29.84 in 10.0 mi NW 10.4 mph 20.7 mph N/A   Overcast
7:37 PM 55.0 °F 51.1 °F 86% 29.85 in 10.0 mi NW 17.3 mph 25.3 mph N/A   Overcast
7:55 PM 54.0 °F 51.1 °F 90% 29.85 in 5.0 mi NW 10.4 mph - 0.00 in Rain Light Rain
8:03 PM 55.0 °F 51.1 °F 86% 29.85 in 10.0 mi NW 11.5 mph 17.3 mph 0.00 in   Overcast
8:24 PM 55.0 °F 51.1 °F 86% 29.86 in 10.0 mi NW 9.2 mph - 0.00 in   Overcast
8:55 PM 55.0 °F 48.9 °F 80% 29.86 in 10.0 mi NW 11.5 mph 21.9 mph 0.00 in   Overcast
9:55 PM 55.0 °F 50.0 °F 83% 29.86 in 10.0 mi NW 11.5 mph 17.3 mph N/A   Overcast
10:18 PM 55.0 °F 50.0 °F 83% 29.86 in 10.0 mi NW 8.1 mph - N/A   Overcast
10:55 PM 55.9 °F 50.0 °F 80% 29.87 in 10.0 mi NNW 9.2 mph - N/A   Overcast
11:55 PM 55.0 °F 48.9 °F 80% 29.88 in 10.0 mi NW 4.6 mph - N/A   Mostly Cloudy